contact:dominique.lefevre@mio.osupytheas.fr, maurice.libes@osupytheas.fr, didier.mallarino@osupytheas.fr
Project:EMSO http://www.emso-fr.org/EMSO-France
Depth: 2436.0 m
Title:EMSO Ligure Ouest : Data MII capteur OXYGEN
DateTime,Latitude,Longitude,Optode-Type,Optode_Serial,Oxygen,Saturation_Oxygen,Temperature
DateTime,Latitude,Longitude,Optode-Type,Optode_Serial,µmol.l-1,%,degC
2019-06-03T00:01:21,42.805,6.029,4330,1995,195.643,59.829,13.287
2019-06-03T00:04:21,42.805,6.029,4330,1995,195.695,59.845,13.287
2019-06-03T00:07:21,42.805,6.029,4330,1995,195.700,59.847,13.287
2019-06-03T00:10:21,42.805,6.029,4330,1995,195.659,59.834,13.287
2019-06-03T00:13:21,42.805,6.029,4330,1995,195.592,59.814,13.287
2019-06-03T00:16:21,42.805,6.029,4330,1995,195.703,59.847,13.287
2019-06-03T00:19:21,42.805,6.029,4330,1995,195.665,59.836,13.287
2019-06-03T00:22:21,42.805,6.029,4330,1995,195.682,59.841,13.287
2019-06-03T00:25:21,42.805,6.029,4330,1995,195.676,59.839,13.287
2019-06-03T00:28:21,42.805,6.029,4330,1995,195.650,59.831,13.287
2019-06-03T00:31:21,42.805,6.029,4330,1995,195.710,59.850,13.287
2019-06-03T00:34:21,42.805,6.029,4330,1995,195.714,59.851,13.287
2019-06-03T00:37:21,42.805,6.029,4330,1995,195.725,59.854,13.287
2019-06-03T00:40:21,42.805,6.029,4330,1995,195.688,59.843,13.287
2019-06-03T00:43:21,42.805,6.029,4330,1995,195.766,59.867,13.287
2019-06-03T00:46:21,42.805,6.029,4330,1995,195.699,59.847,13.288
2019-06-03T00:49:21,42.805,6.029,4330,1995,195.702,59.848,13.287
2019-06-03T00:52:21,42.805,6.029,4330,1995,195.759,59.865,13.288
2019-06-03T00:55:21,42.805,6.029,4330,1995,195.791,59.875,13.288
2019-06-03T00:58:21,42.805,6.029,4330,1995,195.747,59.862,13.288
2019-06-03T01:01:21,42.805,6.029,4330,1995,195.704,59.849,13.288
2019-06-03T01:04:21,42.805,6.029,4330,1995,195.754,59.864,13.288
2019-06-03T01:07:21,42.805,6.029,4330,1995,195.718,59.853,13.288
2019-06-03T01:10:21,42.805,6.029,4330,1995,195.713,59.851,13.288
2019-06-03T01:13:21,42.805,6.029,4330,1995,195.704,59.849,13.288
2019-06-03T01:16:21,42.805,6.029,4330,1995,195.735,59.858,13.288
2019-06-03T01:19:21,42.805,6.029,4330,1995,195.701,59.848,13.288
2019-06-03T01:22:21,42.805,6.029,4330,1995,195.742,59.861,13.288
2019-06-03T01:25:21,42.805,6.029,4330,1995,195.731,59.857,13.288
2019-06-03T01:28:21,42.805,6.029,4330,1995,195.745,59.861,13.288
2019-06-03T01:31:21,42.805,6.029,4330,1995,195.748,59.863,13.288
2019-06-03T01:34:21,42.805,6.029,4330,1995,195.709,59.850,13.288
2019-06-03T01:37:21,42.805,6.029,4330,1995,195.726,59.855,13.288
2019-06-03T01:40:21,42.805,6.029,4330,1995,195.752,59.864,13.288
2019-06-03T01:43:21,42.805,6.029,4330,1995,195.687,59.844,13.288
2019-06-03T01:46:21,42.805,6.029,4330,1995,195.727,59.856,13.288
2019-06-03T01:49:21,42.805,6.029,4330,1995,195.729,59.856,13.288
2019-06-03T01:52:21,42.805,6.029,4330,1995,195.720,59.854,13.288
2019-06-03T01:55:21,42.805,6.029,4330,1995,195.708,59.850,13.288
2019-06-03T01:58:21,42.805,6.029,4330,1995,195.699,59.847,13.288
2019-06-03T02:01:21,42.805,6.029,4330,1995,195.659,59.835,13.288
2019-06-03T02:04:21,42.805,6.029,4330,1995,195.704,59.848,13.288
2019-06-03T02:07:21,42.805,6.029,4330,1995,195.703,59.848,13.287
2019-06-03T02:10:21,42.805,6.029,4330,1995,195.703,59.848,13.288
2019-06-03T02:13:21,42.805,6.029,4330,1995,195.747,59.861,13.287
2019-06-03T02:16:21,42.805,6.029,4330,1995,195.700,59.847,13.287
2019-06-03T02:19:21,42.805,6.029,4330,1995,195.680,59.841,13.287
2019-06-03T02:22:21,42.805,6.029,4330,1995,195.655,59.835,13.289
2019-06-03T02:25:21,42.805,6.029,4330,1995,195.693,59.845,13.287
2019-06-03T02:28:21,42.805,6.029,4330,1995,195.664,59.836,13.287
2019-06-03T02:31:21,42.805,6.029,4330,1995,195.690,59.844,13.288
2019-06-03T02:34:21,42.805,6.029,4330,1995,195.672,59.838,13.287
2019-06-03T02:37:21,42.805,6.029,4330,1995,195.685,59.842,13.287
2019-06-03T02:40:21,42.805,6.029,4330,1995,195.684,59.842,13.288
2019-06-03T02:43:21,42.805,6.029,4330,1995,195.624,59.824,13.287
2019-06-03T02:46:21,42.805,6.029,4330,1995,195.691,59.844,13.287
2019-06-03T02:49:21,42.805,6.029,4330,1995,195.715,59.851,13.287
2019-06-03T02:52:21,42.805,6.029,4330,1995,195.677,59.841,13.288
2019-06-03T02:55:21,42.805,6.029,4330,1995,195.698,59.847,13.288
2019-06-03T02:58:21,42.805,6.029,4330,1995,195.719,59.853,13.288
2019-06-03T03:01:21,42.805,6.029,4330,1995,195.657,59.834,13.288
2019-06-03T03:04:21,42.805,6.029,4330,1995,195.711,59.851,13.288
2019-06-03T03:07:21,42.805,6.029,4330,1995,195.667,59.838,13.288
2019-06-03T03:10:21,42.805,6.029,4330,1995,195.703,59.850,13.289
2019-06-03T03:13:21,42.805,6.029,4330,1995,195.584,59.814,13.289
2019-06-03T03:16:21,42.805,6.029,4330,1995,195.674,59.840,13.288
2019-06-03T03:19:21,42.805,6.029,4330,1995,195.688,59.845,13.289
2019-06-03T03:22:21,42.805,6.029,4330,1995,195.683,59.842,13.288
2019-06-03T03:25:21,42.805,6.029,4330,1995,195.631,59.827,13.288
2019-06-03T03:28:21,42.805,6.029,4330,1995,195.655,59.834,13.288
2019-06-03T03:31:21,42.805,6.029,4330,1995,195.674,59.841,13.289
2019-06-03T03:34:21,42.805,6.029,4330,1995,195.622,59.828,13.291
2019-06-03T03:37:21,42.805,6.029,4330,1995,195.635,59.829,13.289
2019-06-03T03:40:21,42.805,6.029,4330,1995,195.632,59.830,13.290
2019-06-03T03:43:21,42.805,6.029,4330,1995,195.634,59.832,13.291
2019-06-03T03:46:21,42.805,6.029,4330,1995,195.608,59.820,13.288
2019-06-03T03:49:21,42.805,6.029,4330,1995,195.604,59.819,13.288
2019-06-03T03:52:21,42.805,6.029,4330,1995,195.614,59.822,13.289
2019-06-03T03:55:21,42.805,6.029,4330,1995,195.608,59.823,13.291
2019-06-03T03:58:21,42.805,6.029,4330,1995,195.619,59.825,13.290
2019-06-03T04:01:21,42.805,6.029,4330,1995,195.565,59.807,13.289
2019-06-03T04:04:21,42.805,6.029,4330,1995,195.676,59.841,13.288
2019-06-03T04:07:21,42.805,6.029,4330,1995,195.635,59.829,13.288
2019-06-03T04:10:21,42.805,6.029,4330,1995,195.578,59.811,13.288
2019-06-03T04:13:21,42.805,6.029,4330,1995,195.609,59.820,13.288
2019-06-03T04:16:21,42.805,6.029,4330,1995,195.559,59.805,13.288
2019-06-03T04:19:21,42.805,6.029,4330,1995,195.582,59.812,13.288
2019-06-03T04:22:21,42.805,6.029,4330,1995,195.498,59.785,13.288
2019-06-03T04:25:21,42.805,6.029,4330,1995,195.520,59.794,13.289
2019-06-03T04:28:21,42.805,6.029,4330,1995,195.549,59.801,13.287
2019-06-03T04:31:21,42.805,6.029,4330,1995,195.544,59.799,13.287
2019-06-03T04:34:21,42.805,6.029,4330,1995,195.501,59.788,13.289
2019-06-03T04:37:21,42.805,6.029,4330,1995,195.544,59.800,13.288
2019-06-03T04:40:21,42.805,6.029,4330,1995,195.550,59.801,13.288
2019-06-03T04:43:21,42.805,6.029,4330,1995,195.548,59.803,13.289
2019-06-03T04:46:21,42.805,6.029,4330,1995,195.582,59.811,13.288
2019-06-03T04:49:21,42.805,6.029,4330,1995,195.515,59.792,13.289
2019-06-03T04:52:21,42.805,6.029,4330,1995,195.518,59.794,13.289
2019-06-03T04:55:21,42.805,6.029,4330,1995,195.533,59.797,13.288
2019-06-03T04:58:21,42.805,6.029,4330,1995,195.450,59.772,13.289
2019-06-03T05:01:21,42.805,6.029,4330,1995,195.529,59.795,13.288
2019-06-03T05:04:21,42.805,6.029,4330,1995,195.494,59.785,13.288
2019-06-03T05:07:21,42.805,6.029,4330,1995,195.517,59.794,13.290
2019-06-03T05:10:21,42.805,6.029,4330,1995,195.479,59.780,13.288
2019-06-03T05:13:21,42.805,6.029,4330,1995,195.562,59.805,13.288
2019-06-03T05:16:21,42.805,6.029,4330,1995,195.550,59.803,13.289
2019-06-03T05:19:21,42.805,6.029,4330,1995,195.531,59.797,13.289
2019-06-03T05:22:21,42.805,6.029,4330,1995,195.504,59.791,13.290
2019-06-03T05:25:21,42.805,6.029,4330,1995,195.491,59.784,13.288
2019-06-03T05:28:21,42.805,6.029,4330,1995,195.503,59.790,13.290
2019-06-03T05:31:21,42.805,6.029,4330,1995,195.540,59.802,13.290
2019-06-03T05:34:21,42.805,6.029,4330,1995,195.482,59.782,13.289
2019-06-03T05:37:21,42.805,6.029,4330,1995,195.524,59.794,13.288
2019-06-03T05:40:21,42.805,6.029,4330,1995,195.465,59.779,13.290
2019-06-03T05:43:21,42.805,6.029,4330,1995,195.538,59.799,13.289
2019-06-03T05:46:21,42.805,6.029,4330,1995,195.498,59.789,13.290
2019-06-03T05:49:21,42.805,6.029,4330,1995,195.472,59.783,13.292
2019-06-03T05:52:21,42.805,6.029,4330,1995,195.493,59.786,13.290
2019-06-03T05:55:21,42.805,6.029,4330,1995,195.465,59.780,13.291
2019-06-03T05:58:21,42.805,6.029,4330,1995,195.410,59.764,13.292
2019-06-03T06:01:21,42.805,6.029,4330,1995,195.410,59.762,13.290
2019-06-03T06:04:21,42.805,6.029,4330,1995,195.391,59.755,13.289
2019-06-03T06:07:21,42.805,6.029,4330,1995,195.393,59.755,13.289
2019-06-03T06:10:21,42.805,6.029,4330,1995,195.414,59.761,13.289
2019-06-03T06:13:21,42.805,6.029,4330,1995,195.413,59.762,13.289
2019-06-03T06:16:21,42.805,6.029,4330,1995,195.377,59.750,13.288
2019-06-03T06:19:21,42.805,6.029,4330,1995,195.387,59.753,13.289
2019-06-03T06:22:21,42.805,6.029,4330,1995,195.347,59.740,13.288
2019-06-03T06:25:21,42.805,6.029,4330,1995,195.352,59.744,13.290
2019-06-03T06:28:21,42.805,6.029,4330,1995,195.321,59.734,13.289
2019-06-03T06:31:21,42.805,6.029,4330,1995,195.313,59.731,13.290
2019-06-03T06:34:21,42.805,6.029,4330,1995,195.362,59.746,13.289
2019-06-03T06:37:21,42.805,6.029,4330,1995,195.330,59.734,13.288
2019-06-03T06:40:21,42.805,6.029,4330,1995,195.345,59.740,13.289
2019-06-03T06:43:21,42.805,6.029,4330,1995,195.353,59.743,13.289
2019-06-03T06:46:21,42.805,6.029,4330,1995,195.334,59.736,13.288
2019-06-03T06:49:21,42.805,6.029,4330,1995,195.327,59.735,13.289
2019-06-03T06:52:21,42.805,6.029,4330,1995,195.314,59.730,13.288
2019-06-03T06:55:21,42.805,6.029,4330,1995,195.299,59.725,13.288
2019-06-03T06:58:21,42.805,6.029,4330,1995,195.325,59.733,13.288
2019-06-03T07:01:21,42.805,6.029,4330,1995,195.344,59.742,13.290
2019-06-03T07:04:21,42.805,6.029,4330,1995,195.221,59.703,13.289
2019-06-03T07:07:21,42.805,6.029,4330,1995,195.280,59.722,13.290
2019-06-03T07:10:21,42.805,6.029,4330,1995,195.275,59.718,13.288
2019-06-03T07:13:21,42.805,6.029,4330,1995,195.210,59.701,13.290
2019-06-03T07:16:21,42.805,6.029,4330,1995,195.245,59.712,13.291
2019-06-03T07:19:21,42.805,6.029,4330,1995,195.215,59.701,13.289
2019-06-03T07:22:21,42.805,6.029,4330,1995,195.183,59.691,13.289
2019-06-03T07:25:21,42.805,6.029,4330,1995,195.211,59.701,13.290
2019-06-03T07:28:21,42.805,6.029,4330,1995,195.272,59.720,13.290
2019-06-03T07:31:21,42.805,6.029,4330,1995,195.174,59.693,13.292
2019-06-03T07:34:21,42.805,6.029,4330,1995,195.200,59.698,13.290
2019-06-03T07:37:21,42.805,6.029,4330,1995,195.183,59.694,13.292
2019-06-03T07:40:21,42.805,6.029,4330,1995,195.163,59.688,13.291
2019-06-03T07:43:21,42.805,6.029,4330,1995,195.213,59.704,13.292
2019-06-03T07:46:21,42.805,6.029,4330,1995,195.166,59.690,13.292
2019-06-03T07:49:21,42.805,6.029,4330,1995,195.112,59.673,13.292
2019-06-03T07:52:21,42.805,6.029,4330,1995,195.128,59.677,13.292
2019-06-03T07:55:21,42.805,6.029,4330,1995,195.144,59.683,13.292
2019-06-03T07:58:21,42.805,6.029,4330,1995,195.124,59.677,13.292
2019-06-03T08:01:21,42.805,6.029,4330,1995,195.035,59.650,13.292
2019-06-03T08:04:21,42.805,6.029,4330,1995,195.065,59.658,13.291
2019-06-03T08:07:21,42.805,6.029,4330,1995,195.044,59.652,13.292
2019-06-03T08:10:21,42.805,6.029,4330,1995,195.056,59.656,13.292
2019-06-03T08:13:21,42.805,6.029,4330,1995,195.061,59.658,13.292
2019-06-03T08:16:21,42.805,6.029,4330,1995,194.990,59.636,13.292
2019-06-03T08:19:21,42.805,6.029,4330,1995,194.969,59.629,13.291
2019-06-03T08:22:21,42.805,6.029,4330,1995,195.006,59.641,13.292
2019-06-03T08:25:21,42.805,6.029,4330,1995,194.991,59.635,13.291
2019-06-03T08:28:21,42.805,6.029,4330,1995,194.967,59.629,13.292
2019-06-03T08:31:21,42.805,6.029,4330,1995,194.969,59.629,13.292
2019-06-03T08:34:21,42.805,6.029,4330,1995,194.955,59.624,13.291
2019-06-03T08:37:21,42.805,6.029,4330,1995,195.002,59.638,13.291
2019-06-03T08:40:21,42.805,6.029,4330,1995,195.002,59.637,13.290
2019-06-03T08:43:21,42.805,6.029,4330,1995,194.968,59.626,13.290
2019-06-03T08:46:21,42.805,6.029,4330,1995,195.000,59.637,13.290
2019-06-03T08:49:21,42.805,6.029,4330,1995,194.970,59.628,13.290
2019-06-03T08:52:21,42.805,6.029,4330,1995,194.965,59.625,13.290
2019-06-03T08:55:21,42.805,6.029,4330,1995,194.948,59.620,13.290
2019-06-03T08:58:21,42.805,6.029,4330,1995,194.966,59.626,13.290
2019-06-03T09:01:21,42.805,6.029,4330,1995,194.941,59.618,13.290
2019-06-03T09:04:21,42.805,6.029,4330,1995,194.868,59.597,13.290
2019-06-03T09:07:21,42.805,6.029,4330,1995,194.874,59.598,13.290
2019-06-03T09:10:21,42.805,6.029,4330,1995,194.881,59.601,13.291
2019-06-03T09:13:21,42.805,6.029,4330,1995,194.907,59.609,13.291
2019-06-03T09:16:21,42.805,6.029,4330,1995,194.883,59.601,13.291
2019-06-03T09:19:21,42.805,6.029,4330,1995,194.845,59.591,13.292
2019-06-03T09:22:21,42.805,6.029,4330,1995,194.860,59.594,13.291
2019-06-03T09:25:21,42.805,6.029,4330,1995,194.874,59.599,13.291
2019-06-03T09:28:21,42.805,6.029,4330,1995,194.862,59.596,13.291
2019-06-03T09:31:21,42.805,6.029,4330,1995,194.839,59.589,13.291
2019-06-03T09:34:21,42.805,6.029,4330,1995,194.823,59.584,13.291
2019-06-03T09:37:21,42.805,6.029,4330,1995,194.786,59.573,13.292
2019-06-03T09:40:21,42.805,6.029,4330,1995,194.786,59.573,13.292
2019-06-03T09:43:21,42.805,6.029,4330,1995,194.831,59.587,13.292
2019-06-03T09:46:21,42.805,6.029,4330,1995,194.769,59.569,13.292
2019-06-03T09:49:21,42.805,6.029,4330,1995,194.752,59.564,13.292
2019-06-03T09:52:21,42.805,6.029,4330,1995,194.749,59.563,13.293
2019-06-03T09:55:21,42.805,6.029,4330,1995,194.755,59.565,13.293
2019-06-03T09:58:21,42.805,6.029,4330,1995,194.756,59.566,13.293
2019-06-03T10:01:21,42.805,6.029,4330,1995,194.714,59.553,13.293
2019-06-03T10:04:21,42.805,6.029,4330,1995,194.763,59.568,13.293
2019-06-03T10:07:21,42.805,6.029,4330,1995,194.716,59.554,13.293
2019-06-03T10:10:21,42.805,6.029,4330,1995,194.678,59.542,13.293
2019-06-03T10:13:21,42.805,6.029,4330,1995,194.709,59.551,13.293
2019-06-03T10:16:21,42.805,6.029,4330,1995,194.759,59.566,13.293
2019-06-03T10:19:21,42.805,6.029,4330,1995,194.735,59.558,13.292
2019-06-03T10:22:21,42.805,6.029,4330,1995,194.712,59.552,13.293
2019-06-03T10:25:21,42.805,6.029,4330,1995,194.674,59.540,13.292
2019-06-03T10:28:21,42.805,6.029,4330,1995,194.722,59.554,13.292
2019-06-03T10:31:21,42.805,6.029,4330,1995,194.649,59.533,13.293
2019-06-03T10:34:21,42.805,6.029,4330,1995,194.682,59.543,13.293
2019-06-03T10:37:21,42.805,6.029,4330,1995,194.709,59.550,13.292
2019-06-03T10:40:21,42.805,6.029,4330,1995,194.754,59.564,13.292
2019-06-03T10:43:21,42.805,6.029,4330,1995,194.730,59.556,13.292
2019-06-03T10:46:21,42.805,6.029,4330,1995,194.688,59.543,13.291
2019-06-03T10:49:21,42.805,6.029,4330,1995,194.696,59.546,13.292
2019-06-03T10:52:21,42.805,6.029,4330,1995,194.688,59.542,13.291
2019-06-03T10:55:21,42.805,6.029,4330,1995,194.682,59.540,13.291
2019-06-03T10:58:21,42.805,6.029,4330,1995,194.715,59.550,13.290
2019-06-03T11:01:21,42.805,6.029,4330,1995,194.701,59.545,13.290
2019-06-03T11:04:21,42.805,6.029,4330,1995,194.672,59.537,13.291
2019-06-03T11:07:21,42.805,6.029,4330,1995,194.731,59.554,13.290
2019-06-03T11:10:21,42.805,6.029,4330,1995,194.793,59.574,13.291
2019-06-03T11:13:21,42.805,6.029,4330,1995,194.780,59.570,13.291
2019-06-03T11:16:21,42.805,6.029,4330,1995,194.724,59.553,13.291
2019-06-03T11:19:21,42.805,6.029,4330,1995,194.798,59.576,13.291
2019-06-03T11:22:21,42.805,6.029,4330,1995,194.688,59.542,13.291
2019-06-03T11:25:21,42.805,6.029,4330,1995,194.699,59.545,13.290
2019-06-03T11:28:21,42.805,6.029,4330,1995,194.739,59.558,13.291
2019-06-03T11:31:21,42.805,6.029,4330,1995,194.746,59.560,13.291
2019-06-03T11:34:21,42.805,6.029,4330,1995,194.675,59.539,13.292
2019-06-03T11:37:21,42.805,6.029,4330,1995,194.667,59.536,13.291
2019-06-03T11:40:21,42.805,6.029,4330,1995,194.721,59.553,13.292
2019-06-03T11:43:21,42.805,6.029,4330,1995,194.650,59.532,13.292
2019-06-03T11:46:21,42.805,6.029,4330,1995,194.715,59.553,13.292
2019-06-03T11:49:21,42.805,6.029,4330,1995,194.708,59.550,13.292
2019-06-03T11:52:21,42.805,6.029,4330,1995,194.708,59.550,13.292
2019-06-03T11:55:21,42.805,6.029,4330,1995,194.765,59.566,13.291
2019-06-03T11:58:21,42.805,6.029,4330,1995,194.778,59.571,13.292
2019-06-03T12:01:21,42.805,6.029,4330,1995,194.771,59.566,13.290
2019-06-03T12:04:21,42.805,6.029,4330,1995,194.808,59.578,13.290
2019-06-03T12:07:21,42.805,6.029,4330,1995,194.801,59.575,13.290
2019-06-03T12:10:21,42.805,6.029,4330,1995,194.728,59.555,13.291
2019-06-03T12:13:21,42.805,6.029,4330,1995,194.782,59.572,13.292
2019-06-03T12:16:21,42.805,6.029,4330,1995,194.759,59.566,13.292
2019-06-03T12:19:21,42.805,6.029,4330,1995,194.807,59.578,13.290
2019-06-03T12:22:21,42.805,6.029,4330,1995,194.851,59.591,13.290
2019-06-03T12:25:20,42.805,6.029,4330,1995,194.808,59.578,13.290
2019-06-03T12:28:20,42.805,6.029,4330,1995,194.808,59.580,13.292
2019-06-03T12:31:20,42.805,6.029,4330,1995,194.881,59.600,13.290
2019-06-03T12:34:20,42.805,6.029,4330,1995,194.773,59.571,13.293
2019-06-03T12:37:20,42.805,6.029,4330,1995,194.841,59.588,13.290
2019-06-03T12:40:20,42.805,6.029,4330,1995,194.804,59.577,13.291
2019-06-03T12:43:20,42.805,6.029,4330,1995,194.796,59.576,13.292
2019-06-03T12:46:20,42.805,6.029,4330,1995,194.856,59.592,13.290
2019-06-03T12:49:20,42.805,6.029,4330,1995,194.738,59.556,13.290
2019-06-03T12:52:20,42.805,6.029,4330,1995,194.719,59.551,13.290
2019-06-03T12:55:20,42.805,6.029,4330,1995,194.727,59.553,13.290
2019-06-03T12:58:20,42.805,6.029,4330,1995,194.760,59.562,13.289
2019-06-03T13:01:20,42.805,6.029,4330,1995,194.876,59.597,13.289
2019-06-03T13:04:20,42.805,6.029,4330,1995,194.765,59.563,13.289
2019-06-03T13:07:20,42.805,6.029,4330,1995,194.707,59.545,13.289
2019-06-03T13:10:20,42.805,6.029,4330,1995,194.826,59.581,13.288
2019-06-03T13:13:20,42.805,6.029,4330,1995,194.835,59.583,13.288
2019-06-03T13:16:20,42.805,6.029,4330,1995,194.876,59.596,13.288
2019-06-03T13:19:20,42.805,6.029,4330,1995,194.782,59.567,13.288
2019-06-03T13:22:20,42.805,6.029,4330,1995,194.702,59.543,13.288
2019-06-03T13:25:20,42.805,6.029,4330,1995,194.608,59.514,13.288
2019-06-03T13:28:20,42.805,6.029,4330,1995,194.518,59.486,13.288
2019-06-03T13:31:20,42.805,6.029,4330,1995,194.480,59.475,13.288
2019-06-03T13:34:20,42.805,6.029,4330,1995,194.531,59.490,13.288
2019-06-03T13:37:20,42.805,6.029,4330,1995,194.447,59.465,13.288
2019-06-03T13:40:20,42.805,6.029,4330,1995,194.454,59.467,13.289
2019-06-03T13:43:20,42.805,6.029,4330,1995,194.490,59.478,13.288
2019-06-03T13:46:20,42.805,6.029,4330,1995,194.388,59.447,13.288
2019-06-03T13:49:20,42.805,6.029,4330,1995,194.381,59.445,13.289
2019-06-03T13:52:20,42.805,6.029,4330,1995,194.451,59.467,13.289
2019-06-03T13:55:20,42.805,6.029,4330,1995,194.472,59.473,13.288
2019-06-03T13:58:20,42.805,6.029,4330,1995,194.438,59.463,13.289
2019-06-03T14:01:20,42.805,6.029,4330,1995,194.438,59.463,13.289
2019-06-03T14:04:20,42.805,6.029,4330,1995,194.508,59.484,13.289
2019-06-03T14:07:20,42.805,6.029,4330,1995,194.648,59.527,13.289
2019-06-03T14:10:20,42.805,6.029,4330,1995,194.718,59.549,13.289
2019-06-03T14:13:20,42.805,6.029,4330,1995,194.643,59.526,13.289
2019-06-03T14:16:20,42.805,6.029,4330,1995,194.720,59.549,13.289
2019-06-03T14:19:20,42.805,6.029,4330,1995,194.704,59.544,13.289
2019-06-03T14:22:20,42.805,6.029,4330,1995,194.814,59.578,13.289
2019-06-03T14:25:20,42.805,6.029,4330,1995,194.823,59.581,13.289
2019-06-03T14:28:20,42.805,6.029,4330,1995,194.679,59.537,13.289
2019-06-03T14:31:20,42.805,6.029,4330,1995,194.525,59.490,13.289
2019-06-03T14:34:20,42.805,6.029,4330,1995,194.591,59.510,13.289
2019-06-03T14:37:20,42.805,6.029,4330,1995,194.592,59.510,13.289
2019-06-03T14:40:20,42.805,6.029,4330,1995,194.701,59.543,13.289
2019-06-03T14:43:20,42.805,6.029,4330,1995,194.674,59.535,13.289
2019-06-03T14:46:20,42.805,6.029,4330,1995,194.681,59.537,13.289
2019-06-03T14:49:20,42.805,6.029,4330,1995,194.733,59.553,13.289
2019-06-03T14:52:20,42.805,6.029,4330,1995,194.886,59.600,13.289
2019-06-03T14:55:20,42.805,6.029,4330,1995,194.851,59.589,13.289
2019-06-03T14:58:20,42.805,6.029,4330,1995,194.866,59.593,13.289
2019-06-03T15:01:20,42.805,6.029,4330,1995,194.938,59.615,13.288
2019-06-03T15:04:20,42.805,6.029,4330,1995,194.993,59.632,13.288
2019-06-03T15:07:20,42.805,6.029,4330,1995,194.892,59.601,13.289
2019-06-03T15:10:20,42.805,6.029,4330,1995,194.941,59.616,13.288
2019-06-03T15:13:20,42.805,6.029,4330,1995,194.923,59.610,13.288
2019-06-03T15:16:20,42.805,6.029,4330,1995,195.036,59.645,13.288
2019-06-03T15:19:20,42.805,6.029,4330,1995,195.040,59.646,13.288
2019-06-03T15:22:20,42.805,6.029,4330,1995,195.111,59.667,13.288
2019-06-03T15:25:20,42.805,6.029,4330,1995,195.119,59.669,13.288
2019-06-03T15:28:20,42.805,6.029,4330,1995,195.088,59.660,13.288
2019-06-03T15:31:20,42.805,6.029,4330,1995,195.098,59.663,13.288
2019-06-03T15:34:20,42.805,6.029,4330,1995,195.102,59.664,13.288
2019-06-03T15:37:20,42.805,6.029,4330,1995,195.107,59.666,13.287
2019-06-03T15:40:20,42.805,6.029,4330,1995,195.126,59.672,13.288
2019-06-03T15:43:20,42.805,6.029,4330,1995,195.076,59.657,13.288
2019-06-03T15:46:20,42.805,6.029,4330,1995,195.112,59.668,13.288
2019-06-03T15:49:20,42.805,6.029,4330,1995,195.106,59.666,13.288
2019-06-03T15:52:20,42.805,6.029,4330,1995,195.114,59.668,13.288
2019-06-03T15:55:20,42.805,6.029,4330,1995,195.090,59.661,13.288
2019-06-03T15:58:20,42.805,6.029,4330,1995,195.097,59.664,13.288
2019-06-03T16:01:20,42.805,6.029,4330,1995,195.124,59.674,13.290
2019-06-03T16:04:20,42.805,6.029,4330,1995,195.070,59.656,13.289
2019-06-03T16:07:20,42.805,6.029,4330,1995,195.028,59.643,13.288
2019-06-03T16:10:20,42.805,6.029,4330,1995,195.058,59.653,13.289
2019-06-03T16:13:20,42.805,6.029,4330,1995,195.054,59.651,13.288
2019-06-03T16:16:20,42.805,6.029,4330,1995,195.072,59.657,13.289
2019-06-03T16:19:20,42.805,6.029,4330,1995,195.161,59.683,13.288
2019-06-03T16:22:20,42.805,6.029,4330,1995,195.088,59.662,13.289
2019-06-03T16:25:20,42.805,6.029,4330,1995,195.130,59.675,13.289
2019-06-03T16:28:20,42.805,6.029,4330,1995,195.135,59.676,13.289
2019-06-03T16:31:20,42.805,6.029,4330,1995,195.120,59.671,13.289
2019-06-03T16:34:20,42.805,6.029,4330,1995,195.085,59.661,13.289
2019-06-03T16:37:20,42.805,6.029,4330,1995,195.165,59.685,13.288
2019-06-03T16:40:20,42.805,6.029,4330,1995,195.126,59.673,13.288
2019-06-03T16:43:20,42.805,6.029,4330,1995,195.172,59.688,13.290
2019-06-03T16:46:20,42.805,6.029,4330,1995,195.191,59.693,13.289
2019-06-03T16:49:20,42.805,6.029,4330,1995,195.187,59.692,13.289
2019-06-03T16:52:20,42.805,6.029,4330,1995,195.155,59.682,13.289
2019-06-03T16:55:20,42.805,6.029,4330,1995,195.199,59.697,13.290
2019-06-03T16:58:20,42.805,6.029,4330,1995,195.274,59.719,13.289
2019-06-03T17:01:20,42.805,6.029,4330,1995,195.212,59.700,13.289
2019-06-03T17:04:20,42.805,6.029,4330,1995,195.195,59.695,13.289
2019-06-03T17:07:20,42.805,6.029,4330,1995,195.217,59.703,13.290
2019-06-03T17:10:20,42.805,6.029,4330,1995,195.223,59.705,13.290
2019-06-03T17:13:20,42.805,6.029,4330,1995,195.214,59.700,13.289
2019-06-03T17:16:20,42.805,6.029,4330,1995,195.202,59.696,13.289
2019-06-03T17:19:20,42.805,6.029,4330,1995,195.130,59.675,13.289
2019-06-03T17:22:20,42.805,6.029,4330,1995,195.166,59.685,13.288
2019-06-03T17:25:20,42.805,6.029,4330,1995,195.088,59.661,13.288
2019-06-03T17:28:20,42.805,6.029,4330,1995,195.153,59.681,13.288
2019-06-03T17:31:20,42.805,6.029,4330,1995,195.171,59.686,13.288
2019-06-03T17:34:20,42.805,6.029,4330,1995,195.180,59.689,13.288
2019-06-03T17:37:20,42.805,6.029,4330,1995,195.180,59.689,13.288
2019-06-03T17:40:20,42.805,6.029,4330,1995,195.168,59.685,13.288
2019-06-03T17:43:20,42.805,6.029,4330,1995,195.159,59.682,13.288
2019-06-03T17:46:20,42.805,6.029,4330,1995,195.185,59.690,13.288
2019-06-03T17:49:20,42.805,6.029,4330,1995,195.109,59.667,13.288
2019-06-03T17:52:20,42.805,6.029,4330,1995,195.136,59.675,13.288
2019-06-03T17:55:20,42.805,6.029,4330,1995,195.128,59.673,13.288
2019-06-03T17:58:20,42.805,6.029,4330,1995,195.180,59.689,13.288
2019-06-03T18:01:20,42.805,6.029,4330,1995,195.199,59.694,13.288
2019-06-03T18:04:20,42.805,6.029,4330,1995,195.228,59.703,13.288
2019-06-03T18:07:20,42.805,6.029,4330,1995,195.147,59.679,13.288